• In Hungary
  • List of Countries
  • For 7 days
  • Water Temperature
  • Satellite Maps
  • Weather Map
  • News
  • Weather Widgets
  • user-avatar
    Login

    Hourly Weather Sadowo

    Today, 24 January, Wednesday

    Time Temperature Precipitation Wind Pressure Humidity
    00:00 0°C° 0 mm 4 mps 760 mmHg 92%
    01:00 0°C° 0 mm 4 mps 760 mmHg 90%
    02:00 0°C° 0.1 mm 4 mps 759 mmHg 90%
    03:00 +1°C° 0.1 mm 4 mps 759 mmHg 89%
    04:00 +1°C° 0.1 mm 4 mps 758 mmHg 88%
    05:00 +1°C° 0.2 mm 4 mps 758 mmHg 89%
    06:00 +1°C° 0.2 mm 4 mps 758 mmHg 91%
    07:00 +3°C° 0.2 mm 4 mps 758 mmHg 92%
    08:00 +2°C° 0 mm 5 mps 758 mmHg 92%
    09:00 +3°C° 0 mm 5 mps 758 mmHg 91%
    10:00 +3°C° 0 mm 5 mps 758 mmHg 91%
    11:00 +5°C° 0 mm 4 mps 758 mmHg 90%
    12:00 +6°C° 0 mm 4 mps 758 mmHg 88%
    13:00 +7°C° 0 mm 4 mps 758 mmHg 87%
    14:00 +6°C° 0 mm 4 mps 758 mmHg 87%
    15:00 +6°C° 0 mm 4 mps 758 mmHg 88%
    16:00 +6°C° 0 mm 4 mps 758 mmHg 89%
    17:00 +5°C° 0 mm 4 mps 757 mmHg 89%
    18:00 +5°C° 0 mm 4 mps 757 mmHg 89%
    19:00 +5°C° 0 mm 4 mps 757 mmHg 89%
    20:00 +5°C° 0 mm 4 mps 757 mmHg 89%
    21:00 +5°C° 0 mm 5 mps 757 mmHg 88%
    22:00 +5°C° 0 mm 5 mps 756 mmHg 87%
    23:00 +5°C° 0 mm 5 mps 756 mmHg 85%

    Tomorrow, 25 January, Thursday

    Time Temperature Precipitation Wind Pressure Humidity
    00:00 +5°C° 0 mm 5 mps 756 mmHg 83%
    01:00 +5°C° 0 mm 5 mps 756 mmHg 81%
    02:00 +5°C° 0 mm 5 mps 755 mmHg 80%
    03:00 +5°C° 0 mm 5 mps 755 mmHg 78%
    04:00 +5°C° 0 mm 5 mps 755 mmHg 76%
    05:00 +5°C° 0 mm 5 mps 755 mmHg 77%
    06:00 +3°C° 0 mm 5 mps 755 mmHg 77%
    07:00 +3°C° 0 mm 5 mps 755 mmHg 78%
    08:00 +5°C° 0 mm 5 mps 755 mmHg 77%
    09:00 +5°C° 0 mm 4 mps 755 mmHg 76%
    10:00 +5°C° 0 mm 4 mps 755 mmHg 75%
    11:00 +6°C° 0 mm 4 mps 755 mmHg 74%
    12:00 +7°C° 0 mm 4 mps 754 mmHg 73%
    13:00 +7°C° 0 mm 4 mps 754 mmHg 72%
    14:00 +8°C° 0 mm 3 mps 754 mmHg 73%
    15:00 +7°C° 0 mm 3 mps 754 mmHg 75%
    16:00 +7°C° 0 mm 3 mps 754 mmHg 76%
    17:00 +5°C° 0 mm 3 mps 754 mmHg 77%
    18:00 +5°C° 0 mm 3 mps 754 mmHg 78%
    19:00 +4°C° 0 mm 3 mps 754 mmHg 79%
    20:00 +4°C° 0 mm 3 mps 754 mmHg 79%
    21:00 +4°C° 0 mm 3 mps 754 mmHg 79%
    22:00 +3°C° 0 mm 3 mps 754 mmHg 80%
    23:00 +3°C° 0 mm 3 mps 754 mmHg 80%

    Day after tomorrow, 26 January, Friday

    Time Temperature Precipitation Wind Pressure Humidity
    00:00 +2°C° 0 mm 3 mps 753 mmHg 81%
    01:00 +3°C° 0 mm 2 mps 753 mmHg 82%
    02:00 +3°C° 0 mm 2 mps 753 mmHg 82%
    03:00 +3°C° 0 mm 2 mps 753 mmHg 82%
    04:00 +3°C° 0 mm 2 mps 752 mmHg 83%
    05:00 +3°C° 0 mm 2 mps 752 mmHg 83%
    06:00 +3°C° 0 mm 2 mps 752 mmHg 83%
    07:00 +3°C° 0 mm 2 mps 753 mmHg 83%
    08:00 +3°C° 0 mm 2 mps 753 mmHg 81%
    09:00 +4°C° 0 mm 2 mps 753 mmHg 80%
    10:00 +4°C° 0 mm 2 mps 753 mmHg 78%
    11:00 +5°C° 0 mm 2 mps 753 mmHg 77%
    12:00 +6°C° 0 mm 2 mps 754 mmHg 76%
    13:00 +7°C° 0 mm 2 mps 754 mmHg 75%
    14:00 +6°C° 0.1 mm 2 mps 754 mmHg 80%
    15:00 +6°C° 0.1 mm 2 mps 755 mmHg 84%
    16:00 +6°C° 0.1 mm 1 mps 755 mmHg 88%
    17:00 +6°C° 0.4 mm 1 mps 755 mmHg 91%
    18:00 +6°C° 0.4 mm 1 mps 756 mmHg 93%
    19:00 +6°C° 0.4 mm 1 mps 756 mmHg 96%
    20:00 +5°C° 0.2 mm 1 mps 757 mmHg 96%
    21:00 +5°C° 0.2 mm 1 mps 757 mmHg 97%
    22:00 +5°C° 0.2 mm 1 mps 758 mmHg 97%
    23:00 +5°C° 0.4 mm 1 mps 758 mmHg 97%

    27 January, Saturday

    Time Temperature Precipitation Wind Pressure Humidity
    00:00 +5°C° 0.4 mm 1 mps 758 mmHg 97%
    01:00 +5°C° 0.4 mm 1 mps 759 mmHg 97%
    02:00 +4°C° 0.3 mm 2 mps 759 mmHg 97%
    03:00 +4°C° 0.3 mm 2 mps 760 mmHg 97%
    04:00 +3°C° 0.3 mm 2 mps 760 mmHg 97%
    05:00 +4°C° 0.1 mm 1 mps 760 mmHg 97%
    06:00 +4°C° 0.1 mm 1 mps 761 mmHg 97%
    07:00 +4°C° 0.1 mm 1 mps 762 mmHg 96%
    08:00 +4°C° 0 mm 1 mps 762 mmHg 95%
    09:00 +4°C° 0 mm 1 mps 763 mmHg 93%
    10:00 +5°C° 0 mm 1 mps 764 mmHg 92%
    11:00 +5°C° 0 mm 1 mps 764 mmHg 88%
    12:00 +6°C° 0 mm 1 mps 765 mmHg 85%
    13:00 +7°C° 0 mm 1 mps 765 mmHg 81%
    14:00 +6°C° 0 mm 1 mps 765 mmHg 84%
    15:00 +6°C° 0 mm 1 mps 766 mmHg 86%
    16:00 +6°C° 0 mm 1 mps 766 mmHg 88%
    17:00 +5°C° 0 mm 1 mps 766 mmHg 90%
    18:00 +5°C° 0 mm 1 mps 767 mmHg 91%
    19:00 +4°C° 0 mm 1 mps 768 mmHg 93%
    20:00 +4°C° 0 mm 1 mps 768 mmHg 93%
    21:00 +3°C° 0 mm 1 mps 768 mmHg 94%
    22:00 +3°C° 0 mm 1 mps 769 mmHg 94%
    23:00 +2°C° 0 mm 2 mps 769 mmHg 94%

    28 January, Sunday

    Time Temperature Precipitation Wind Pressure Humidity
    00:00 +2°C° 0 mm 2 mps 769 mmHg 95%
    01:00 +1°C° 0 mm 2 mps 769 mmHg 95%
    02:00 +1°C° 0 mm 2 mps 769 mmHg 95%
    03:00 +1°C° 0 mm 2 mps 769 mmHg 95%
    04:00 +1°C° 0 mm 2 mps 769 mmHg 95%
    05:00 +1°C° 0 mm 2 mps 769 mmHg 94%
    06:00 +1°C° 0 mm 2 mps 769 mmHg 94%
    07:00 0°C° 0 mm 3 mps 769 mmHg 93%
    08:00 +1°C° 0 mm 3 mps 769 mmHg 89%
    09:00 +1°C° 0 mm 4 mps 769 mmHg 84%
    10:00 +3°C° 0 mm 4 mps 769 mmHg 80%
    11:00 +4°C° 0 mm 4 mps 768 mmHg 75%
    12:00 +5°C° 0 mm 5 mps 768 mmHg 71%
    13:00 +6°C° 0 mm 5 mps 768 mmHg 67%
    14:00 +5°C° 0 mm 5 mps 767 mmHg 68%
    15:00 +5°C° 0 mm 4 mps 767 mmHg 69%
    16:00 +5°C° 0 mm 4 mps 767 mmHg 70%
    17:00 +5°C° 0 mm 4 mps 767 mmHg 71%
    18:00 +3°C° 0 mm 5 mps 767 mmHg 72%
    19:00 +3°C° 0 mm 5 mps 767 mmHg 73%
    20:00 +3°C° 0 mm 5 mps 767 mmHg 75%
    21:00 +3°C° 0 mm 5 mps 767 mmHg 76%
    22:00 +5°C° 0 mm 5 mps 766 mmHg 77%
    23:00 +5°C° 0 mm 5 mps 766 mmHg 79%

    29 January, Monday

    Time Temperature Precipitation Wind Pressure Humidity
    00:00 +5°C° 0 mm 5 mps 766 mmHg 81%
    01:00 +5°C° 0 mm 5 mps 766 mmHg 83%
    02:00 +3°C° 0 mm 5 mps 766 mmHg 85%
    03:00 +3°C° 0 mm 5 mps 765 mmHg 86%
    04:00 +3°C° 0 mm 5 mps 765 mmHg 88%
    05:00 +5°C° 0 mm 5 mps 765 mmHg 88%
    06:00 +5°C° 0 mm 5 mps 765 mmHg 88%
    07:00 +5°C° 0 mm 5 mps 765 mmHg 89%
    08:00 +5°C° 0 mm 5 mps 765 mmHg 87%
    09:00 +5°C° 0 mm 6 mps 764 mmHg 86%
    10:00 +5°C° 0 mm 6 mps 764 mmHg 85%
    11:00 +7°C° 0 mm 6 mps 764 mmHg 84%
    12:00 +7°C° 0 mm 6 mps 763 mmHg 82%
    13:00 +6°C° 0 mm 7 mps 763 mmHg 81%
    14:00 +7°C° 0 mm 6 mps 763 mmHg 81%
    15:00 +7°C° 0 mm 6 mps 762 mmHg 82%
    16:00 +7°C° 0 mm 6 mps 762 mmHg 82%
    17:00 +7°C° 0.1 mm 6 mps 762 mmHg 83%
    18:00 +7°C° 0.1 mm 6 mps 762 mmHg 83%
    19:00 +8°C° 0.1 mm 7 mps 762 mmHg 84%
    20:00 +8°C° 0 mm 6 mps 762 mmHg 84%
    21:00 +7°C° 0 mm 6 mps 762 mmHg 85%
    22:00 +7°C° 0 mm 6 mps 762 mmHg 85%
    23:00 +7°C° 0 mm 6 mps 762 mmHg 85%
    Show more